User: anonymous   Login
Location: Vancouver
(49.2500°N, 123.1330°W)
Time: 22:50:04
(UTC-08:00)
Language:

Cosmos 1864 Rocket - Orbit

View from above orbital plane
View from above orbital plane
View from above satellite
View from above satellite

Ground track
Ground track

The orbit data is extracted from the following two-line orbital elements,

1 18161U 87057B   14354.55570847  .00000156  00000-0  14252-3 0  6257
2 18161 082.9334 028.7976 0030366 341.2854 183.1635 13.76872272359045
Epoch (UTC): 20 December 2014 13:20:13
Eccentricity: 0.0030366
inclination: 82.9334°
perigee height: 952 km
apogee height: 997 km
right ascension of ascending node: 28.7976°
argument of perigee: 341.2854°
revolutions per day: 13.76872272
mean anomaly at epoch: 183.1635°
orbit number at epoch: 35904

The dashed part of the orbit path shows where the satellite is in the earth's shadow,  

DLR